Terminal Aerodrome Forecast
Issued by NWS Melbourne, FL

Home | Current Version | Previous Version | Text Only | Print | Product List | Glossary On
Versions: 1 2 3 4 5 6 7 8 9 10 11 12 13 14 15 16 17 18 19 20 21 22 23 24
000
FTUS42 KMLB 231700
TAFMCO
TAF
KMCO 231730Z 2318/2418 21006KT P6SM VCTS SCT040CB SCT080 BKN250
     FM240000 VRB03KT P6SM SCT100 BKN250
     FM240300 VRB02KT P6SM FEW005 SCT250
      TEMPO 2410/2413 BKN005
     FM241400 21006KT P6SM FEW020 SCT250=

USA.gov is the U.S. government's official web portal to all federal, state and local government web resources and services.